Find WGS SV-7

NORAD ID: 40746 Int'l Des: 2015-036 Owner: AFSMC Country: US operational
HEOCIRCULARGSOGEO

リアルタイム位置

3D地球を読み込み中...

WGS SV-7について

説明を読み込み中...

次回通過

Passes for default location (London). Set your location on the main map for personalized predictions.

高度履歴

Loading altitude history...

軌道要素

1 40746U 15036A 26131.14519669 .00000028 00000-0 00000+0 0 9999
2 40746 0.0138 305.3048 0000290 32.0204 118.8839 1.00270923 39509
Epoch: May 11, 2026 • Age: 8 hours

現在のステータス

高度 35786.9 km
速度 3.07 km/s
衛星直下点 -0.03°S, 174.98°E
打ち上げ日 Jul 24, 2015
運用期間 10.7 years
タイプ other

技術仕様

分類 Payload
質量 5900.00 kg
乾燥質量 3300.00 kg
総質量 5900.00 kg
長さ 6.00 m
直径 3.00 m
スパン 40.90 m
形状 Box + 2 pan
製造者 BOES
バスタイプ BSS-702HP
フェーズステータス In Orbit
所有者/国 AFSMC/US

Most Searched